Location: St. Louis
(38.6270°N, 90.1994°W)
Time: 04:44:20
(UTC-05:00)

deb Delta - Pass Details

Date: 12 July 2022
Orbit: 1084 x 1202 km, 99.8° (Epoch: 15 August)

Event Time Altitude Azimuth Distance (km) Brightness Sun altitude
Exits shadow 01:43:37 53° 135° (SE) 1,442 ? -28.8°
Maximum altitude 01:45:23 72° 72° (ENE) 1,249 ? -28.7°
Drops below altitude 10° 01:52:26 10° 350° (N) 3,098 ? -28.5°
Sets 01:55:01 0° 348° (NNW) 4,049 ? -28.4°
